Volver al catálogo

FENGYUN 1C DEB

LostSSO
NORAD 31684·DEBRIS·🇨🇳 China

Lanzado May 10, 1999 desde Taiyuan Satellite Launch Center

Loading…

Próximos Pases (próximas 24 horas)

TLE

ObsoletoSource: Space-Track

Época: Aug 21, 2022, 01:44 UTC

1 31684U 99025CCS 22233.07256797  .00001341  00000-0  74417-3 0  9997
2 31684  98.9645 317.6805 0058013 149.4202 211.0373 14.12058536782902

Sigue FENGYUN 1C DEB en tiempo real con AllMySat

Download on the App Store